EFW568X EGKK-LPPR

Flight info

Callsign EFW568X
Flight time N/A
Altitude 35000
Route NOVMA1X NOVMA L620 SAM M195 LORKU DCT LOTEE/N0452F390 DCT ELTEP/N0396F230 T328 ASPOR ASPOR6C
Aircraft A321/M-SDE3FGIJ1KRWXY/SB1

Departure

Time 2026-04-14 17:13
Airport London Gatwick Airport (EGKK)

Arrival

Time N/A
Airport Francisco de Sá Carneiro Airport (LPPR)
Time Latitude Longitude Altitude Speed Heading
2026-04-14 16:28 51.15856 -0.16702 204 ft 0 kts 249°
2026-04-14 16:49 51.15859 -0.16688 214 ft 4 kts 244°
2026-04-14 16:49 51.15870 -0.16659 216 ft 4 kts 284°
2026-04-14 16:50 51.15864 -0.16625 213 ft 1 kts 285°
2026-04-14 16:53 51.15881 -0.16635 212 ft 5 kts 341°
2026-04-14 16:54 51.15899 -0.16645 210 ft 4 kts 342°
2026-04-14 16:54 51.15912 -0.16652 215 ft 2 kts 341°
2026-04-14 16:54 51.15921 -0.16656 213 ft 0 kts 341°
2026-04-14 16:54 51.15924 -0.16658 212 ft 2 kts 342°
2026-04-14 16:55 51.15946 -0.16680 213 ft 5 kts 320°
2026-04-14 16:55 51.15969 -0.16714 214 ft 4 kts 303°
2026-04-14 16:55 51.15974 -0.16777 208 ft 8 kts 277°
2026-04-14 16:55 51.15974 -0.16892 211 ft 12 kts 260°
2026-04-14 16:56 51.15934 -0.17009 209 ft 11 kts 227°
2026-04-14 16:56 51.15879 -0.17067 210 ft 8 kts 200°
2026-04-14 16:56 51.15832 -0.17080 204 ft 6 kts 186°
2026-04-14 16:56 51.15797 -0.17075 204 ft 5 kts 169°
2026-04-14 16:57 51.15754 -0.17061 214 ft 8 kts 168°
2026-04-14 16:57 51.15690 -0.17039 206 ft 10 kts 168°
2026-04-14 16:57 51.15640 -0.17078 204 ft 9 kts 244°
2026-04-14 16:57 51.15624 -0.17178 207 ft 10 kts 256°
2026-04-14 16:58 51.15607 -0.17282 205 ft 9 kts 245°
2026-04-14 16:58 51.15561 -0.17316 212 ft 7 kts 174°
2026-04-14 16:58 51.15522 -0.17303 208 ft 5 kts 166°
2026-04-14 16:58 51.15498 -0.17294 204 ft 3 kts 168°
2026-04-14 16:59 51.15478 -0.17288 214 ft 2 kts 168°
2026-04-14 16:59 51.15472 -0.17286 212 ft 0 kts 168°
2026-04-14 16:59 51.15470 -0.17285 211 ft 1 kts 168°
2026-04-14 16:59 51.15457 -0.17281 211 ft 0 kts 168°
2026-04-14 17:01 51.15456 -0.17280 204 ft 1 kts 168°
2026-04-14 17:02 51.15422 -0.17268 204 ft 8 kts 167°
2026-04-14 17:02 51.15360 -0.17247 204 ft 10 kts 167°
2026-04-14 17:02 51.15299 -0.17225 207 ft 1 kts 167°
2026-04-14 17:03 51.15296 -0.17224 208 ft 2 kts 167°
2026-04-14 17:03 51.15262 -0.17226 212 ft 6 kts 199°
2026-04-14 17:03 51.15222 -0.17264 209 ft 7 kts 200°
2026-04-14 17:03 51.15184 -0.17239 210 ft 7 kts 125°
2026-04-14 17:04 51.15186 -0.17160 209 ft 8 kts 78°
2026-04-14 17:04 51.15198 -0.17064 205 ft 10 kts 77°
2026-04-14 17:04 51.15214 -0.16952 204 ft 10 kts 78°
2026-04-14 17:04 51.15216 -0.16936 208 ft 0 kts 78°
2026-04-14 17:08 51.15216 -0.16933 213 ft 1 kts 78°
2026-04-14 17:08 51.15221 -0.16894 208 ft 5 kts 78°
2026-04-14 17:09 51.15223 -0.16867 207 ft 0 kts 92°
2026-04-14 17:12 51.15220 -0.16850 204 ft 4 kts 109°
2026-04-14 17:12 51.15186 -0.16802 207 ft 9 kts 149°
2026-04-14 17:12 51.15124 -0.16809 213 ft 9 kts 235°
2026-04-14 17:12 51.15109 -0.16894 205 ft 9 kts 258°
2026-04-14 17:13 51.15066 -0.17200 204 ft 62 kts 257°
2026-04-14 17:13 51.14922 -0.18251 205 ft 130 kts 257°
2026-04-14 17:13 51.14693 -0.19914 324 ft 170 kts 256°
2026-04-14 17:13 51.14455 -0.21723 1128 ft 166 kts 254°
2026-04-14 17:14 51.14212 -0.23532 1777 ft 171 kts 250°
2026-04-14 17:14 51.13932 -0.25486 2080 ft 191 kts 249°
2026-04-14 17:14 51.13615 -0.27670 2286 ft 214 kts 250°
2026-04-14 17:14 51.13262 -0.30113 2551 ft 238 kts 251°
2026-04-14 17:15 51.12893 -0.32731 3221 ft 246 kts 252°
2026-04-14 17:15 51.12522 -0.35417 3836 ft 250 kts 253°
2026-04-14 17:15 51.12150 -0.38133 4470 ft 251 kts 254°
2026-04-14 17:15 51.11778 -0.40852 5296 ft 252 kts 254°
2026-04-14 17:16 51.11299 -0.43537 6053 ft 253 kts 244°
2026-04-14 17:16 51.10530 -0.46064 6791 ft 254 kts 242°
2026-04-14 17:16 51.09739 -0.48597 7508 ft 257 kts 241°
2026-04-14 17:16 51.08936 -0.51167 8218 ft 261 kts 242°
2026-04-14 17:17 51.08120 -0.53776 8932 ft 265 kts 242°
2026-04-14 17:17 51.07294 -0.56420 9623 ft 269 kts 242°
2026-04-14 17:17 51.06454 -0.59104 10291 ft 273 kts 242°
2026-04-14 17:17 51.05827 -0.61106 10766 ft 276 kts 243°
2026-04-14 17:18 51.05177 -0.63990 11405 ft 281 kts 256°
2026-04-14 17:18 51.04771 -0.67017 12070 ft 283 kts 257°
2026-04-14 17:18 51.04359 -0.70111 12754 ft 286 kts 257°
2026-04-14 17:18 51.03945 -0.73219 13389 ft 290 kts 257°
2026-04-14 17:19 51.03525 -0.76359 14009 ft 294 kts 257°
2026-04-14 17:19 51.03083 -0.79647 14149 ft 314 kts 257°
2026-04-14 17:19 51.02611 -0.83140 14273 ft 333 kts 257°
2026-04-14 17:19 51.02112 -0.86824 14444 ft 348 kts 258°
2026-04-14 17:20 51.01598 -0.90624 14864 ft 354 kts 258°
2026-04-14 17:20 51.01077 -0.94469 15357 ft 358 kts 258°
2026-04-14 17:20 51.00551 -0.98349 15873 ft 361 kts 258°
2026-04-14 17:20 51.00018 -1.02257 16414 ft 364 kts 258°
2026-04-14 17:21 50.99474 -1.06188 16952 ft 366 kts 258°
2026-04-14 17:21 50.98905 -1.10154 17485 ft 369 kts 258°
2026-04-14 17:21 50.98329 -1.14075 18014 ft 371 kts 258°
2026-04-14 17:21 50.97728 -1.18072 18516 ft 373 kts 258°
2026-04-14 17:22 50.97115 -1.22086 18951 ft 376 kts 258°
2026-04-14 17:22 50.96495 -1.26122 19384 ft 378 kts 258°
2026-04-14 17:22 50.95900 -1.29971 19786 ft 380 kts 258°
2026-04-14 17:22 50.95267 -1.34044 20216 ft 382 kts 258°
2026-04-14 17:23 50.94367 -1.38026 20623 ft 388 kts 244°
2026-04-14 17:23 50.92726 -1.41468 21011 ft 396 kts 226°
2026-04-14 17:23 50.90473 -1.44027 21421 ft 402 kts 215°
2026-04-14 17:23 50.88090 -1.46349 21838 ft 404 kts 214°
2026-04-14 17:24 50.85681 -1.48668 22231 ft 406 kts 214°
2026-04-14 17:24 50.83250 -1.50994 22628 ft 408 kts 214°
2026-04-14 17:24 50.80812 -1.53325 23025 ft 411 kts 214°
2026-04-14 17:24 50.78362 -1.55677 23403 ft 413 kts 214°
2026-04-14 17:25 50.75901 -1.58045 23768 ft 415 kts 214°
2026-04-14 17:25 50.73429 -1.60428 24093 ft 417 kts 215°
2026-04-14 17:25 50.70945 -1.62818 24426 ft 419 kts 215°
2026-04-14 17:25 50.68445 -1.65216 24752 ft 421 kts 215°
2026-04-14 17:26 50.65932 -1.67619 25076 ft 423 kts 215°
2026-04-14 17:26 50.63410 -1.70029 25382 ft 425 kts 215°
2026-04-14 17:26 50.60874 -1.72446 25708 ft 427 kts 215°
2026-04-14 17:26 50.58332 -1.74869 26035 ft 429 kts 215°
2026-04-14 17:27 50.55775 -1.77308 26347 ft 431 kts 215°
2026-04-14 17:27 50.53208 -1.79754 26668 ft 432 kts 215°
2026-04-14 17:27 50.50639 -1.82229 26970 ft 434 kts 216°
2026-04-14 17:27 50.48072 -1.84745 27284 ft 436 kts 216°
2026-04-14 17:28 50.45510 -1.87282 27611 ft 436 kts 216°
2026-04-14 17:28 50.42943 -1.89825 27982 ft 436 kts 216°
2026-04-14 17:28 50.40374 -1.92361 28286 ft 438 kts 216°
2026-04-14 17:28 50.38661 -1.94046 28476 ft 439 kts 216°
2026-04-14 17:29 50.36066 -1.96591 28749 ft 441 kts 216°
2026-04-14 17:29 50.32616 -1.99964 29103 ft 443 kts 216°
2026-04-14 17:29 50.29994 -2.02512 29338 ft 445 kts 216°
2026-04-14 17:29 50.27362 -2.05065 29590 ft 447 kts 216°
2026-04-14 17:30 50.25575 -2.06798 29730 ft 448 kts 216°
2026-04-14 17:30 50.22062 -2.10200 30036 ft 449 kts 216°
2026-04-14 17:30 50.20299 -2.11901 30235 ft 449 kts 216°
2026-04-14 17:30 50.17637 -2.14454 30499 ft 448 kts 216°
2026-04-14 17:31 50.14977 -2.16993 30722 ft 448 kts 216°
2026-04-14 17:31 50.12318 -2.19527 30949 ft 449 kts 216°
2026-04-14 17:31 50.09655 -2.22065 31195 ft 448 kts 216°
2026-04-14 17:31 50.06988 -2.24608 31438 ft 448 kts 217°
2026-04-14 17:32 50.04333 -2.27137 31689 ft 448 kts 217°
2026-04-14 17:32 50.01681 -2.29660 31965 ft 446 kts 217°
2026-04-14 17:32 49.99037 -2.32166 32310 ft 444 kts 217°
2026-04-14 17:32 49.96409 -2.34654 32595 ft 442 kts 217°
2026-04-14 17:33 49.93768 -2.37101 32830 ft 444 kts 213°
2026-04-14 17:33 49.90978 -2.39209 33056 ft 447 kts 211°
2026-04-14 17:33 49.88166 -2.41269 33277 ft 447 kts 211°
2026-04-14 17:34 49.82533 -2.45374 33747 ft 447 kts 211°
2026-04-14 17:34 49.79725 -2.47419 33981 ft 447 kts 211°
2026-04-14 17:34 49.76913 -2.49470 34197 ft 446 kts 212°
2026-04-14 17:34 49.74106 -2.51519 34411 ft 446 kts 212°
2026-04-14 17:35 49.71300 -2.53563 34611 ft 445 kts 212°
2026-04-14 17:35 49.68496 -2.55598 34795 ft 446 kts 212°
2026-04-14 17:35 49.65725 -2.57604 34972 ft 446 kts 212°
2026-04-14 17:36 49.60120 -2.61651 35083 ft 443 kts 212°
2026-04-14 17:36 49.54555 -2.65672 35083 ft 442 kts 212°
2026-04-14 17:37 49.48989 -2.69678 35071 ft 441 kts 212°
2026-04-14 17:37 49.43444 -2.73658 35084 ft 439 kts 212°
2026-04-14 17:38 49.37911 -2.77621 35084 ft 439 kts 212°
2026-04-14 17:38 49.32373 -2.81594 35077 ft 439 kts 212°
2026-04-14 17:39 49.26836 -2.85548 35061 ft 440 kts 212°
2026-04-14 17:39 49.21282 -2.89496 35063 ft 440 kts 211°
2026-04-14 17:40 49.15754 -2.93405 35064 ft 441 kts 211°
2026-04-14 17:40 49.10191 -2.97340 35071 ft 441 kts 211°
2026-04-14 17:41 49.04618 -3.01272 35075 ft 441 kts 211°
2026-04-14 17:41 48.99041 -3.05197 35056 ft 442 kts 211°
2026-04-14 17:42 48.93452 -3.09120 35075 ft 442 kts 211°
2026-04-14 17:42 48.87873 -3.13024 35089 ft 441 kts 211°
2026-04-14 17:43 48.82296 -3.16928 35097 ft 441 kts 211°
2026-04-14 17:43 48.76731 -3.20815 35099 ft 440 kts 211°
2026-04-14 17:44 48.71167 -3.24682 35099 ft 440 kts 211°
2026-04-14 17:44 48.65597 -3.28540 35099 ft 440 kts 211°
2026-04-14 17:45 48.60026 -3.32389 35082 ft 440 kts 211°
2026-04-14 17:45 48.54463 -3.36227 35080 ft 440 kts 211°
2026-04-14 17:46 48.48888 -3.40069 35084 ft 441 kts 211°
2026-04-14 17:46 48.43312 -3.43911 35086 ft 441 kts 211°
2026-04-14 17:47 48.37727 -3.47742 35081 ft 440 kts 210°
2026-04-14 17:47 48.32146 -3.51546 35105 ft 440 kts 210°
2026-04-14 17:48 48.26617 -3.55315 35105 ft 440 kts 210°
2026-04-14 17:48 48.21034 -3.59118 35106 ft 440 kts 210°
2026-04-14 17:49 48.15470 -3.62911 35105 ft 440 kts 210°
2026-04-14 17:49 48.09880 -3.66687 35104 ft 440 kts 210°
2026-04-14 17:50 48.04288 -3.70452 35102 ft 441 kts 210°
2026-04-14 17:50 47.98703 -3.74218 35111 ft 441 kts 210°
2026-04-14 17:51 47.93112 -3.77978 35105 ft 441 kts 210°
2026-04-14 17:51 47.87511 -3.81739 35096 ft 441 kts 210°
2026-04-14 17:52 47.81915 -3.85483 35111 ft 441 kts 210°
2026-04-14 17:52 47.76323 -3.89219 35126 ft 440 kts 210°
2026-04-14 17:53 47.70770 -3.92914 35123 ft 440 kts 210°
2026-04-14 17:53 47.65180 -3.96617 35125 ft 440 kts 210°
2026-04-14 17:54 47.59589 -4.00318 35122 ft 440 kts 210°
2026-04-14 17:54 47.53999 -4.04031 35124 ft 440 kts 210°
2026-04-14 17:55 47.48406 -4.07728 35117 ft 440 kts 210°
2026-04-14 17:55 47.42809 -4.11401 35123 ft 441 kts 210°
2026-04-14 17:56 47.37205 -4.15083 35120 ft 441 kts 210°
2026-04-14 17:56 47.31609 -4.18750 35114 ft 440 kts 209°
2026-04-14 17:57 47.26053 -4.22382 35118 ft 440 kts 209°
2026-04-14 17:57 47.20458 -4.26023 35126 ft 439 kts 209°
2026-04-14 17:58 47.14872 -4.29653 35130 ft 439 kts 209°
2026-04-14 17:58 47.09280 -4.33288 35121 ft 439 kts 209°
2026-04-14 17:59 47.03696 -4.36913 35124 ft 440 kts 209°
2026-04-14 17:59 46.98099 -4.40528 35119 ft 440 kts 209°
2026-04-14 18:00 46.92490 -4.44142 35124 ft 440 kts 209°
2026-04-14 18:00 46.84075 -4.49550 35127 ft 441 kts 209°
2026-04-14 18:01 46.78460 -4.53144 35130 ft 441 kts 209°
2026-04-14 18:01 46.72837 -4.56743 35128 ft 441 kts 209°
2026-04-14 18:02 46.67218 -4.60328 35134 ft 441 kts 209°
2026-04-14 18:02 46.61592 -4.63915 35137 ft 441 kts 209°
2026-04-14 18:03 46.55969 -4.67493 35141 ft 441 kts 208°
2026-04-14 18:03 46.50332 -4.71054 35144 ft 441 kts 208°
2026-04-14 18:04 46.44740 -4.74590 35136 ft 441 kts 208°
2026-04-14 18:04 46.39107 -4.78138 35137 ft 442 kts 208°
2026-04-14 18:05 46.33478 -4.81687 35132 ft 442 kts 208°
2026-04-14 18:05 46.27840 -4.85233 35137 ft 442 kts 208°
2026-04-14 18:06 46.22198 -4.88775 35126 ft 442 kts 208°
2026-04-14 18:06 46.16543 -4.92302 35129 ft 443 kts 208°
2026-04-14 18:07 46.10884 -4.95829 35140 ft 443 kts 208°
2026-04-14 18:07 46.05216 -4.99351 35141 ft 444 kts 208°
2026-04-14 18:08 45.99546 -5.02871 35148 ft 444 kts 208°
2026-04-14 18:08 45.93874 -5.06393 35152 ft 444 kts 208°
2026-04-14 18:09 45.88183 -5.09904 35160 ft 445 kts 208°
2026-04-14 18:09 45.82498 -5.13402 35146 ft 445 kts 207°
2026-04-14 18:10 45.76855 -5.16878 35152 ft 445 kts 208°
2026-04-14 18:10 45.71128 -5.20402 35160 ft 445 kts 207°
2026-04-14 18:11 45.65472 -5.23861 35163 ft 445 kts 207°
2026-04-14 18:11 45.59774 -5.27351 35163 ft 445 kts 207°
2026-04-14 18:12 45.54077 -5.30825 35165 ft 446 kts 207°
2026-04-14 18:12 45.48370 -5.34294 35170 ft 446 kts 207°
2026-04-14 18:13 45.42666 -5.37760 35163 ft 446 kts 207°
2026-04-14 18:13 45.36946 -5.41223 35167 ft 447 kts 207°
2026-04-14 18:14 45.31230 -5.44684 35170 ft 446 kts 208°
2026-04-14 18:14 45.25529 -5.48127 35181 ft 446 kts 208°
2026-04-14 18:15 45.19823 -5.51561 35177 ft 445 kts 208°
2026-04-14 18:15 45.14121 -5.54989 35185 ft 445 kts 208°
2026-04-14 18:16 45.08415 -5.58397 35187 ft 445 kts 207°
2026-04-14 18:16 45.02707 -5.61807 35178 ft 445 kts 208°
2026-04-14 18:17 44.97003 -5.65225 35180 ft 445 kts 207°
2026-04-14 18:17 44.91299 -5.68622 35186 ft 446 kts 207°
2026-04-14 18:18 44.85575 -5.72017 35185 ft 446 kts 207°
2026-04-14 18:18 44.79900 -5.75380 35185 ft 445 kts 208°
2026-04-14 18:19 44.74200 -5.78766 35189 ft 445 kts 208°
2026-04-14 18:19 44.68491 -5.82135 35194 ft 445 kts 207°
2026-04-14 18:20 44.63170 -5.86341 35195 ft 436 kts 220°
2026-04-14 18:20 44.58225 -5.91275 35200 ft 436 kts 220°
2026-04-14 18:21 44.53273 -5.96186 35197 ft 436 kts 220°
2026-04-14 18:21 44.48310 -6.01088 35197 ft 436 kts 220°
2026-04-14 18:22 44.43349 -6.05977 35194 ft 436 kts 220°
2026-04-14 18:22 44.38382 -6.10859 35198 ft 436 kts 220°
2026-04-14 18:23 44.33417 -6.15733 35206 ft 435 kts 220°
2026-04-14 18:23 44.29306 -6.19767 35208 ft 435 kts 220°
2026-04-14 18:24 44.24353 -6.24613 35199 ft 434 kts 220°
2026-04-14 18:24 44.19399 -6.29440 35200 ft 434 kts 219°
2026-04-14 18:25 44.14440 -6.34258 35201 ft 435 kts 219°
2026-04-14 18:25 44.09483 -6.39076 35201 ft 435 kts 220°
2026-04-14 18:26 44.04530 -6.43893 35204 ft 435 kts 219°
2026-04-14 18:26 43.99573 -6.48699 35212 ft 435 kts 219°
2026-04-14 18:27 43.94615 -6.53487 35215 ft 434 kts 219°
2026-04-14 18:27 43.89659 -6.58257 35214 ft 433 kts 219°
2026-04-14 18:28 43.84746 -6.62985 35217 ft 433 kts 219°
2026-04-14 18:28 43.79797 -6.67731 35202 ft 433 kts 219°
2026-04-14 18:29 43.74843 -6.72477 35218 ft 433 kts 219°
2026-04-14 18:29 43.69877 -6.77220 35213 ft 434 kts 219°
2026-04-14 18:30 43.64912 -6.81954 35220 ft 434 kts 219°
2026-04-14 18:30 43.59945 -6.86682 35225 ft 434 kts 219°
2026-04-14 18:31 43.54978 -6.91405 35230 ft 433 kts 219°
2026-04-14 18:31 43.50014 -6.96109 35237 ft 433 kts 219°
2026-04-14 18:32 43.45056 -7.00803 35238 ft 432 kts 219°
2026-04-14 18:32 43.40100 -7.05483 35227 ft 432 kts 219°
2026-04-14 18:33 43.35142 -7.10165 35248 ft 433 kts 219°
2026-04-14 18:34 43.25242 -7.19477 35250 ft 433 kts 219°
2026-04-14 18:34 43.20270 -7.24134 35254 ft 432 kts 219°
2026-04-14 18:35 43.15310 -7.28762 35255 ft 431 kts 219°
2026-04-14 18:35 43.10356 -7.33380 35259 ft 430 kts 219°
2026-04-14 18:36 43.05417 -7.37980 35260 ft 430 kts 219°
2026-04-14 18:36 43.00472 -7.42579 35262 ft 430 kts 219°
2026-04-14 18:37 42.95533 -7.47171 35253 ft 430 kts 219°
2026-04-14 18:37 42.90578 -7.51756 35252 ft 430 kts 219°
2026-04-14 18:38 42.85614 -7.56340 35256 ft 431 kts 219°
2026-04-14 18:38 42.80649 -7.60914 35255 ft 431 kts 218°
2026-04-14 18:39 42.75695 -7.65464 34916 ft 428 kts 218°
2026-04-14 18:39 42.73228 -7.67731 34543 ft 428 kts 218°
2026-04-14 18:39 42.70748 -7.70014 33678 ft 432 kts 218°
2026-04-14 18:40 42.68253 -7.72305 32889 ft 434 kts 218°
2026-04-14 18:40 42.65751 -7.74599 32063 ft 436 kts 218°
2026-04-14 18:40 42.63208 -7.76871 31282 ft 439 kts 214°
2026-04-14 18:40 42.60460 -7.78670 30776 ft 439 kts 205°
2026-04-14 18:41 42.57539 -7.79902 30182 ft 439 kts 199°
2026-04-14 18:41 42.54652 -7.80982 29588 ft 435 kts 199°
2026-04-14 18:41 42.51715 -7.82080 29014 ft 429 kts 199°
2026-04-14 18:41 42.48849 -7.83152 28452 ft 424 kts 199°
2026-04-14 18:42 42.46023 -7.84207 27896 ft 420 kts 199°
2026-04-14 18:42 42.43265 -7.85237 27351 ft 415 kts 199°
2026-04-14 18:42 42.40489 -7.86278 26807 ft 411 kts 199°
2026-04-14 18:42 42.37766 -7.87298 26492 ft 402 kts 199°
2026-04-14 18:43 42.35096 -7.88294 26073 ft 396 kts 199°
2026-04-14 18:43 42.32452 -7.89280 25570 ft 393 kts 199°
2026-04-14 18:43 42.29824 -7.90259 25069 ft 390 kts 199°
2026-04-14 18:43 42.27215 -7.91234 24586 ft 388 kts 199°
2026-04-14 18:44 42.24615 -7.92207 24105 ft 386 kts 198°
2026-04-14 18:44 42.23740 -7.92534 23947 ft 385 kts 198°